When you browse on this site, cookies collect data to enhance your experience and personalize the content and advertising you see.
Visit our Privacy Policy to learn more. By continuing to use the site, you agree to this use of cookies and data.
  • In Switzerland
  • List of Countries
  • For 7 days
  • Water Temperature
  • Weather Map
  • Weather Widgets
  • user-avatar
    Login

    Hourly Weather Brecon

    Today, 3 April, Friday

    Time Temperature Precipitation Wind Pressure Humidity
    00:00 +4°C° 0 mm 2 mps 746 mmHg 94%
    01:00 +4°C° 0 mm 2 mps 746 mmHg 93%
    02:00 +4°C° 0 mm 2 mps 746 mmHg 93%
    03:00 +4°C° 0 mm 2 mps 746 mmHg 93%
    04:00 +4°C° 0 mm 2 mps 746 mmHg 93%
    05:00 +3°C° 0 mm 2 mps 746 mmHg 93%
    06:00 +3°C° 0 mm 2 mps 746 mmHg 93%
    07:00 +4°C° 0 mm 2 mps 746 mmHg 85%
    08:00 +6°C° 0 mm 2 mps 747 mmHg 78%
    09:00 +8°C° 0 mm 2 mps 747 mmHg 70%
    10:00 +8°C° 0 mm 3 mps 747 mmHg 70%
    11:00 +8°C° 0 mm 4 mps 747 mmHg 70%
    12:00 +8°C° 0 mm 4 mps 747 mmHg 70%
    13:00 +8°C° 0 mm 4 mps 747 mmHg 70%
    14:00 +8°C° 0 mm 4 mps 747 mmHg 70%
    15:00 +10°C° 0 mm 4 mps 747 mmHg 71%
    16:00 +8°C° 0 mm 4 mps 747 mmHg 75%
    17:00 +8°C° 0 mm 3 mps 747 mmHg 79%
    18:00 +8°C° 0 mm 2 mps 747 mmHg 84%
    19:00 +7°C° 0 mm 2 mps 747 mmHg 86%
    20:00 +6°C° 0 mm 1 mps 747 mmHg 89%
    21:00 +5°C° 0 mm 1 mps 747 mmHg 92%
    22:00 +5°C° 0 mm 1 mps 747 mmHg 92%
    23:00 +5°C° 0 mm 1 mps 747 mmHg 93%

    Tomorrow, 4 April, Saturday

    Time Temperature Precipitation Wind Pressure Humidity
    00:00 +4°C° 0 mm 1 mps 748 mmHg 93%
    01:00 +4°C° 0 mm 1 mps 748 mmHg 93%
    02:00 +4°C° 0 mm 1 mps 747 mmHg 93%
    03:00 +4°C° 0 mm 1 mps 747 mmHg 93%
    04:00 +3°C° 0 mm 2 mps 747 mmHg 94%
    05:00 +3°C° 0 mm 2 mps 747 mmHg 95%
    06:00 +3°C° 0 mm 2 mps 747 mmHg 95%
    07:00 +4°C° 0 mm 3 mps 747 mmHg 92%
    08:00 +5°C° 0 mm 4 mps 747 mmHg 88%
    09:00 +7°C° 0 mm 5 mps 747 mmHg 84%
    10:00 +8°C° 0 mm 5 mps 747 mmHg 80%
    11:00 +9°C° 0 mm 6 mps 747 mmHg 76%
    12:00 +10°C° 0 mm 7 mps 747 mmHg 72%
    13:00 +10°C° 0 mm 7 mps 747 mmHg 71%
    14:00 +10°C° 0 mm 7 mps 746 mmHg 70%
    15:00 +11°C° 0 mm 7 mps 746 mmHg 69%
    16:00 +10°C° 0 mm 6 mps 746 mmHg 73%
    17:00 +9°C° 0 mm 6 mps 746 mmHg 77%
    18:00 +8°C° 0 mm 5 mps 745 mmHg 81%
    19:00 +7°C° 0 mm 5 mps 745 mmHg 85%
    20:00 +6°C° 0 mm 5 mps 745 mmHg 90%
    21:00 +5°C° 0 mm 4 mps 745 mmHg 94%
    22:00 +5°C° 0 mm 4 mps 745 mmHg 94%
    23:00 +5°C° 0 mm 4 mps 745 mmHg 94%

    Day after tomorrow, 5 April, Sunday

    Time Temperature Precipitation Wind Pressure Humidity
    00:00 +5°C° 0 mm 4 mps 744 mmHg 94%
    01:00 +5°C° 0 mm 5 mps 744 mmHg 94%
    02:00 +5°C° 0 mm 5 mps 743 mmHg 94%
    03:00 +5°C° 0 mm 5 mps 742 mmHg 93%
    04:00 +5°C° 0 mm 5 mps 742 mmHg 94%
    05:00 +5°C° 0 mm 5 mps 742 mmHg 94%
    06:00 +5°C° 0 mm 5 mps 741 mmHg 94%
    07:00 +5°C° 0 mm 6 mps 741 mmHg 90%
    08:00 +8°C° 0 mm 6 mps 741 mmHg 86%
    09:00 +9°C° 0 mm 7 mps 740 mmHg 82%
    10:00 +10°C° 0 mm 7 mps 740 mmHg 80%
    11:00 +11°C° 0 mm 8 mps 740 mmHg 78%
    12:00 +12°C° 0 mm 9 mps 740 mmHg 76%
    13:00 +12°C° 0 mm 9 mps 739 mmHg 78%
    14:00 +12°C° 0 mm 9 mps 739 mmHg 80%
    15:00 +12°C° 0 mm 9 mps 738 mmHg 81%
    16:00 +12°C° 0 mm 8 mps 738 mmHg 83%
    17:00 +11°C° 0 mm 8 mps 738 mmHg 84%
    18:00 +11°C° 0 mm 7 mps 737 mmHg 85%
    19:00 +11°C° 0.4 mm 7 mps 737 mmHg 88%
    20:00 +10°C° 0.4 mm 8 mps 737 mmHg 91%
    21:00 +10°C° 0.4 mm 8 mps 737 mmHg 94%
    22:00 +10°C° 1.1 mm 8 mps 737 mmHg 95%
    23:00 +10°C° 1.1 mm 7 mps 737 mmHg 95%

    6 April, Monday

    Time Temperature Precipitation Wind Pressure Humidity
    00:00 +10°C° 1.1 mm 7 mps 737 mmHg 96%
    01:00 +9°C° 0.6 mm 6 mps 738 mmHg 95%
    02:00 +8°C° 0.6 mm 6 mps 738 mmHg 93%
    03:00 +7°C° 0.6 mm 5 mps 738 mmHg 92%
    04:00 +6°C° 0 mm 5 mps 739 mmHg 93%
    05:00 +6°C° 0 mm 5 mps 740 mmHg 93%
    06:00 +5°C° 0 mm 5 mps 741 mmHg 94%
    07:00 +5°C° 0.1 mm 6 mps 742 mmHg 90%
    08:00 +7°C° 0.1 mm 6 mps 743 mmHg 86%
    09:00 +8°C° 0.1 mm 7 mps 744 mmHg 83%
    10:00 +9°C° 0 mm 7 mps 745 mmHg 77%
    11:00 +9°C° 0 mm 7 mps 746 mmHg 71%
    12:00 +9°C° 0 mm 7 mps 747 mmHg 65%
    13:00 +9°C° 0 mm 7 mps 748 mmHg 65%
    14:00 +9°C° 0 mm 7 mps 749 mmHg 65%
    15:00 +9°C° 0 mm 7 mps 750 mmHg 64%
    16:00 +8°C° 0 mm 6 mps 750 mmHg 68%
    17:00 +8°C° 0 mm 5 mps 751 mmHg 72%
    18:00 +7°C° 0 mm 4 mps 752 mmHg 76%
    19:00 +6°C° 0 mm 4 mps 753 mmHg 81%
    20:00 +5°C° 0 mm 3 mps 754 mmHg 87%
    21:00 +3°C° 0 mm 3 mps 755 mmHg 92%
    22:00 +4°C° 0 mm 2 mps 755 mmHg 92%
    23:00 +4°C° 0 mm 2 mps 756 mmHg 93%

    7 April, Tuesday

    Time Temperature Precipitation Wind Pressure Humidity
    00:00 +4°C° 0 mm 2 mps 756 mmHg 93%
    01:00 +4°C° 0 mm 1 mps 756 mmHg 93%
    02:00 +4°C° 0 mm 1 mps 756 mmHg 93%
    03:00 +4°C° 0 mm 1 mps 757 mmHg 93%
    04:00 +4°C° 0 mm 1 mps 757 mmHg 93%
    05:00 +4°C° 0 mm 1 mps 757 mmHg 93%
    06:00 +4°C° 0 mm 1 mps 758 mmHg 93%
    07:00 +6°C° 0 mm 1 mps 758 mmHg 86%
    08:00 +7°C° 0 mm 2 mps 758 mmHg 79%
    09:00 +8°C° 0 mm 2 mps 758 mmHg 73%
    10:00 +9°C° 0 mm 2 mps 758 mmHg 68%
    11:00 +10°C° 0 mm 3 mps 758 mmHg 63%
    12:00 +11°C° 0 mm 3 mps 758 mmHg 58%
    13:00 +12°C° 0 mm 3 mps 758 mmHg 59%
    14:00 +12°C° 0 mm 3 mps 758 mmHg 61%
    15:00 +12°C° 0 mm 3 mps 757 mmHg 62%
    16:00 +12°C° 0 mm 3 mps 757 mmHg 67%
    17:00 +11°C° 0 mm 3 mps 757 mmHg 73%
    18:00 +10°C° 0 mm 2 mps 757 mmHg 79%
    19:00 +9°C° 0 mm 2 mps 757 mmHg 82%
    20:00 +7°C° 0 mm 2 mps 757 mmHg 86%
    21:00 +6°C° 0 mm 2 mps 757 mmHg 90%
    22:00 +5°C° 0 mm 2 mps 757 mmHg 90%
    23:00 +5°C° 0 mm 2 mps 757 mmHg 90%

    8 April, Wednesday

    Time Temperature Precipitation Wind Pressure Humidity
    00:00 +5°C° 0 mm 2 mps 757 mmHg 90%
    01:00 +5°C° 0 mm 2 mps 756 mmHg 89%
    02:00 +5°C° 0 mm 2 mps 756 mmHg 88%
    03:00 +4°C° 0 mm 3 mps 755 mmHg 88%
    04:00 +4°C° 0 mm 3 mps 755 mmHg 89%
    05:00 +4°C° 0 mm 3 mps 755 mmHg 90%
    06:00 +4°C° 0 mm 3 mps 755 mmHg 91%
    07:00 +7°C° 0 mm 3 mps 754 mmHg 88%
    08:00 +9°C° 0 mm 3 mps 754 mmHg 85%
    09:00 +11°C° 0 mm 4 mps 754 mmHg 82%
    10:00 +13°C° 0 mm 4 mps 754 mmHg 81%
    11:00 +14°C° 0 mm 5 mps 754 mmHg 79%
    12:00 +15°C° 0 mm 5 mps 754 mmHg 78%
    13:00 +16°C° 0 mm 6 mps 753 mmHg 76%
    14:00 +16°C° 0 mm 6 mps 753 mmHg 75%
    15:00 +16°C° 0 mm 6 mps 752 mmHg 74%
    16:00 +15°C° 0 mm 5 mps 752 mmHg 77%
    17:00 +14°C° 0 mm 5 mps 752 mmHg 81%
    18:00 +13°C° 0 mm 4 mps 751 mmHg 85%
    19:00 +12°C° 0 mm 4 mps 751 mmHg 88%
    20:00 +10°C° 0 mm 3 mps 751 mmHg 91%
    21:00 +9°C° 0 mm 2 mps 751 mmHg 94%
    22:00 +9°C° 0 mm 2 mps 751 mmHg 95%
    23:00 +9°C° 0 mm 3 mps 751 mmHg 95%
    Show more